Regional Weather Roundup
Issued by NWS

Home | Current Version | Previous Version | Text Only | Print | Product List | Glossary On
Versions: 1 2 3 4 5 6 7 8 9 10 11 12 13 14 15 16 17 18 19 20 21 22 23 24 25 26 27 28 29 30 31 32 33 34 35 36 37 38 39 40 41 42 43 44 45 46 47 48 49 50
000
ASUS43 KDTX 190610
RWRMI
MICHIGAN HOURLY REGIONAL WEATHER ROUNDUP
NATIONAL WEATHER SERVICE DETROIT/PONTIAC MI
200 AM EDT SAT APR 19 2014

NOTE: "FAIR" INDICATES FEW OR NO CLOUDS BELOW 12,000 FEET WITH NO
SIGNIFICANT WEATHER AND/OR OBSTRUCTION TO VISIBILITY.

MIZ047>049-052>055-059>063-066>070-074>076-081>083-190700-
SOUTHEAST LOWER MICHIGAN

CITY           SKY/WX    TMP DP  RH WIND       PRES   REMARKS
ADRIAN         FAIR      43  36  76 E13       30.34S
6HR MIN TEMP:  43; 6HR MAX TEMP:  61;

ALMA           FAIR      33  30  91 NE3       30.41S
ANN ARBOR      CLOUDY    41  32  70 NE8       30.36R
BAD AXE        FAIR      32  27  81 N6        30.40S WCI  27
6HR MIN TEMP:  32; 6HR MAX TEMP:  36;

CARO           FAIR      32  30  94 CALM      30.40S
DETROIT CITY   FAIR      39  28  64 NE10      30.39R WCI  32
6HR MIN TEMP:  39; 6HR MAX TEMP:  52;

DETROIT        FAIR      39  29  67 N12G21    30.38R WCI  32
6HR MIN TEMP:  39; 6HR MAX TEMP:  54;

FLINT          FAIR      34  28  79 E7        30.40S WCI  28
6HR MIN TEMP:  34; 6HR MAX TEMP:  57;

GROSSE ILE     CLOUDY    39  32  75 NE17      30.36R WCI  30
HILLSDALE      FAIR      44  33  66 NE7       30.32S
HOWELL         FAIR      35  30  80 NE7       30.37S WCI  29
6HR MIN TEMP:  35; 6HR MAX TEMP:  55;


CITY           SKY/WX    TMP DP  RH WIND       PRES   REMARKS
JACKSON        MOCLDY    41  35  79 NE8       30.34R
6HR MIN TEMP:  41; 6HR MAX TEMP:  56;

LAMBERTVILLE   FAIR      41  34  75 NE6       30.35S
LANSING        FAIR      36  30  79 NE6       30.39R WCI  31
6HR MIN TEMP:  36; 6HR MAX TEMP:  55;

LAPEER         FAIR      31  30  96 CALM      30.40S
MASON          FAIR      38  33  82 NE9       30.37R WCI  31
MONROE         FAIR      39  34  81 NE7       30.35R WCI  34
MT. CLEMENS    FAIR      35  28  78 NE7       30.38S WCI  29
6HR MIN TEMP:  35; 6HR MAX TEMP:  47;

PONTIAC        FAIR      34  27  75 NE6       30.37S WCI  29
6HR MIN TEMP:  34; 6HR MAX TEMP:  56;

PORT HOPE        N/A     36  30  79 N6        30.39R WCI  31
6HR MIN TEMP:  36; 6HR MAX TEMP:  38;

PORT HURON     FAIR      32  30  93 N6        30.40S WCI  26
TRI CITIES     FAIR      33  27  78 N5        30.42R WCI  29
6HR MIN TEMP:  33; 6HR MAX TEMP:  43;

TROY           MOCLDY    36  29  78 NE7       30.40S WCI  30
SAGINAW HB     FAIR      34  32  93 NE3       30.41R
YPSILANTI      CLOUDY    41  30  65 NE13      30.37R
6HR MIN TEMP:  41; 6HR MAX TEMP:  58;

$$
MIZ043>046-050>051-056>058-064>065-071>073-077>080-190700-
SOUTHWEST LOWER MICHIGAN

CITY           SKY/WX    TMP DP  RH WIND       PRES   REMARKS
BATTLE CREEK   FAIR      40  28  62 NE13      30.36R WCI  32
6HR MIN TEMP:  40; 6HR MAX TEMP:  52;

BENTON HARBOR  FAIR      29  26  89 CALM      30.36R
6HR MIN TEMP:  28; 6HR MAX TEMP:  38;

BIG RAPIDS     FAIR      32  25  76 CALM      30.39S
6HR MIN TEMP:  32; 6HR MAX TEMP:  46;

COLDWATER      FAIR      40  32  73 NE8       30.33S WCI  35
6HR MIN TEMP:  39; 6HR MAX TEMP:  55;

FREMONT        FAIR      33  26  74 E9        30.40R WCI  25
HOLLAND        FAIR      39  26  59 NE6       30.38S WCI  35
6HR MIN TEMP:  39; 6HR MAX TEMP:  42;

GRAND RAPIDS   FAIR      37  25  61 NE9       30.39R WCI  30
6HR MIN TEMP:  37; 6HR MAX TEMP:  52;

IONIA          FAIR      35  27  72 NE7       30.38S WCI  29
KALAMAZOO      FAIR      42  30  62 NE8       30.36R
6HR MIN TEMP:  36; 6HR MAX TEMP:  50;

LUDINGTON      FAIR      30  26  83 NE3       30.40F
MARSHALL       FAIR      39  30  70 N5        30.35R
MOUNT PLEASANT FAIR      32  26  77 CALM      30.41R
6HR MIN TEMP:  32; 6HR MAX TEMP:  49;

MUSKEGON       FAIR      35  23  61 E8        30.40R WCI  29
6HR MIN TEMP:  35; 6HR MAX TEMP:  45;

SOUTH HAVEN    FAIR      31  28  89 NE3       30.36S
$$
MIZ016>042-190700-
NORTHERN LOWER MICHIGAN

CITY           SKY/WX    TMP DP  RH WIND       PRES   REMARKS
ALPENA         FAIR      30  29  96 NW5       30.41R WCI  25
6HR MIN TEMP:  30; 6HR MAX TEMP:  39;

BEAVER ISLAND  FAIR      27  25  93 CALM      30.43S
6HR MIN TEMP:  27; 6HR MAX TEMP:  35;

BELLAIRE       FAIR      26  25  94 CALM      30.42S
6HR MIN TEMP:  26; 6HR MAX TEMP:  38;

CADILLAC       FAIR      28  26  93 CALM      30.37S
CHARLEVOIX     FAIR      30  28  94 CALM      30.45S
6HR MIN TEMP:  29; 6HR MAX TEMP:  37;

FRANKFORT      FAIR      31  27  84 CALM      30.42F
GAYLORD        FAIR      28  25  88 CALM      30.38R
6HR MIN TEMP:  28; 6HR MAX TEMP:  34;

GRAYLING       FAIR      21  20  96 CALM      30.40S
6HR MIN TEMP:  21; 6HR MAX TEMP:  35;

HARBOR SPRINGS FAIR      29  28  95 CALM      30.41F
HOUGHTON LAKE  FAIR      27  24  89 CALM      30.40R
6HR MIN TEMP:  26; 6HR MAX TEMP:  38;

MANISTEE       FAIR      30  25  80 E6        30.42S WCI  24
OSCODA         FAIR      30  26  83 NW3       30.40S
PELLSTON       FAIR      26  23  88 NW3       30.42S
6HR MIN TEMP:  25; 6HR MAX TEMP:  35;

ROGERS CITY    FAIR      31  29  94 W3        30.43R
TRAVERSE CITY  FAIR      30  27  88 NE3       30.42R
6HR MIN TEMP:  29; 6HR MAX TEMP:  37;

$$
MIZ007>008-015-190700-
EASTERN UPPER MICHIGAN

CITY           SKY/WX    TMP DP  RH WIND       PRES   REMARKS
KINROSS        CLOUDY    28  28 100 N6        30.42R WCI  22
6HR MIN TEMP:  28; 6HR MAX TEMP:  34;

MACKINAC ISLAN FAIR      28  28  97 NW5       30.42S WCI  23
6HR MIN TEMP:  28; 6HR MAX TEMP:  36;

NEWBERRY       FAIR      27  26  94 NW6       30.41F WCI  21
S. S. MARIE    CLOUDY    31  29  92 CALM      30.42R
6HR MIN TEMP:  31; 6HR MAX TEMP:  34;

MUNISING         N/A     26  21  81 CALM      30.43F
6HR MIN TEMP:  25; 6HR MAX TEMP:  33;

$$
MIZ004>006-011>014-085-190700-
CENTRAL UPPER MICHIGAN

CITY           SKY/WX    TMP DP  RH WIND       PRES   REMARKS
MANISTIQUE     FAIR      26  25  95 NW5       30.42F WCI  20
ESCANABA       FAIR      28  23  80 CALM      30.41F
6HR MIN TEMP:  28; 6HR MAX TEMP:  41;

MENOMINEE      FAIR      27  23  86 E7        30.41S WCI  19
6HR MIN TEMP:  27; 6HR MAX TEMP:  39;

SAWYER-GWINN   FAIR      21  19  94 CALM      30.40S
$$
MIZ001>003-009>011-084-190700-
WESTERN UPPER MICHIGAN

CITY           SKY/WX    TMP DP  RH WIND       PRES   REMARKS
IRON MOUNTAIN  FAIR      24  21  88 CALM      30.39R
6HR MIN TEMP:  24; 6HR MAX TEMP:  39;

HOUGHTON       FAIR      28  24  85 E6        30.40R WCI  22
6HR MIN TEMP:  26; 6HR MAX TEMP:  34;

COPPER HARBOR    N/A     25  22  88 CALM      30.43R
6HR MIN TEMP:  25; 6HR MAX TEMP:  33;

IRONWOOD       FAIR      36  23  60 SE9       30.31F WCI  29
6HR MIN TEMP:  30; 6HR MAX TEMP:  37;

$$

ABBREVIATIONS USED IN REMARKS
   TC - TEMPERATURE IN CELSIUS
  WCI - WIND CHILL INDEX
   HX - HEAT INDEX
  VSB - VISIBILITY




USA.gov is the U.S. government's official web portal to all federal, state and local government web resources and services.